• In Uzbekistan
  • List of Countries
  • For 7 days
  • Water Temperature
  • Weather Map
  • Weather Widgets
  • user-avatar
    Login

    Hourly Weather Armawir

    Today, 5 June, Friday

    Time Temperature Precipitation Wind Pressure Humidity
    00:00 +19°C° 0 mm 2 mps 688 mmHg 43%
    01:00 +19°C° 0 mm 2 mps 688 mmHg 43%
    02:00 +18°C° 0 mm 2 mps 688 mmHg 44%
    03:00 +18°C° 0 mm 2 mps 687 mmHg 44%
    04:00 +19°C° 0 mm 2 mps 688 mmHg 46%
    05:00 +19°C° 0 mm 2 mps 688 mmHg 47%
    06:00 +20°C° 0 mm 2 mps 689 mmHg 48%
    07:00 +23°C° 0 mm 2 mps 689 mmHg 42%
    08:00 +25°C° 0 mm 2 mps 689 mmHg 36%
    09:00 +27°C° 0 mm 2 mps 689 mmHg 28%
    10:00 +27°C° 0 mm 3 mps 689 mmHg 26%
    11:00 +28°C° 0 mm 4 mps 689 mmHg 24%
    12:00 +29°C° 0 mm 5 mps 690 mmHg 22%
    13:00 +29°C° 0 mm 4 mps 689 mmHg 21%
    14:00 +30°C° 0 mm 4 mps 689 mmHg 21%
    15:00 +30°C° 0 mm 4 mps 689 mmHg 20%
    16:00 +29°C° 0 mm 4 mps 689 mmHg 22%
    17:00 +29°C° 0 mm 4 mps 690 mmHg 25%
    18:00 +28°C° 0 mm 4 mps 690 mmHg 27%
    19:00 +26°C° 0 mm 3 mps 690 mmHg 30%
    20:00 +24°C° 0 mm 3 mps 690 mmHg 34%
    21:00 +21°C° 0 mm 3 mps 690 mmHg 37%
    22:00 +20°C° 0 mm 3 mps 690 mmHg 41%
    23:00 +19°C° 0 mm 3 mps 690 mmHg 45%

    Tomorrow, 6 June, Saturday

    Time Temperature Precipitation Wind Pressure Humidity
    00:00 +18°C° 0 mm 3 mps 690 mmHg 49%
    01:00 +17°C° 0 mm 3 mps 690 mmHg 50%
    02:00 +17°C° 0 mm 2 mps 690 mmHg 51%
    03:00 +16°C° 0 mm 2 mps 690 mmHg 52%
    04:00 +17°C° 0 mm 2 mps 690 mmHg 52%
    05:00 +18°C° 0 mm 2 mps 691 mmHg 51%
    06:00 +18°C° 0 mm 2 mps 691 mmHg 50%
    07:00 +20°C° 0 mm 2 mps 691 mmHg 45%
    08:00 +23°C° 0 mm 2 mps 691 mmHg 39%
    09:00 +25°C° 0 mm 2 mps 692 mmHg 34%
    10:00 +26°C° 0 mm 2 mps 691 mmHg 30%
    11:00 +28°C° 0 mm 2 mps 691 mmHg 27%
    12:00 +29°C° 0 mm 2 mps 691 mmHg 23%
    13:00 +30°C° 0 mm 2 mps 691 mmHg 21%
    14:00 +30°C° 0 mm 2 mps 691 mmHg 19%
    15:00 +31°C° 0 mm 2 mps 691 mmHg 17%
    16:00 +30°C° 0 mm 3 mps 690 mmHg 21%
    17:00 +29°C° 0 mm 3 mps 690 mmHg 26%
    18:00 +28°C° 0 mm 4 mps 690 mmHg 30%
    19:00 +26°C° 0 mm 4 mps 690 mmHg 34%
    20:00 +24°C° 0 mm 3 mps 691 mmHg 38%
    21:00 +21°C° 0 mm 3 mps 691 mmHg 41%
    22:00 +20°C° 0 mm 3 mps 691 mmHg 42%
    23:00 +19°C° 0 mm 2 mps 691 mmHg 43%

    Day after tomorrow, 7 June, Sunday

    Time Temperature Precipitation Wind Pressure Humidity
    00:00 +18°C° 0 mm 2 mps 691 mmHg 43%
    01:00 +18°C° 0 mm 1 mps 690 mmHg 45%
    02:00 +16°C° 0 mm 1 mps 690 mmHg 47%
    03:00 +15°C° 0 mm 1 mps 690 mmHg 49%
    04:00 +16°C° 0 mm 1 mps 690 mmHg 48%
    05:00 +18°C° 0 mm 1 mps 690 mmHg 48%
    06:00 +19°C° 0 mm 1 mps 690 mmHg 47%
    07:00 +21°C° 0 mm 1 mps 690 mmHg 43%
    08:00 +23°C° 0 mm 1 mps 691 mmHg 38%
    09:00 +25°C° 0 mm 1 mps 691 mmHg 33%
    10:00 +26°C° 0 mm 1 mps 691 mmHg 31%
    11:00 +28°C° 0 mm 1 mps 691 mmHg 28%
    12:00 +29°C° 0 mm 2 mps 690 mmHg 25%
    13:00 +30°C° 0 mm 2 mps 690 mmHg 24%
    14:00 +30°C° 0 mm 2 mps 690 mmHg 22%
    15:00 +31°C° 0 mm 2 mps 690 mmHg 21%
    16:00 +31°C° 0 mm 2 mps 689 mmHg 23%
    17:00 +30°C° 0 mm 2 mps 689 mmHg 25%
    18:00 +30°C° 0 mm 1 mps 689 mmHg 28%
    19:00 +27°C° 0 mm 1 mps 689 mmHg 33%
    20:00 +25°C° 0 mm 1 mps 689 mmHg 38%
    21:00 +22°C° 0 mm 1 mps 689 mmHg 43%
    22:00 +21°C° 0 mm 1 mps 689 mmHg 46%
    23:00 +21°C° 0 mm 1 mps 689 mmHg 49%

    8 June, Monday

    Time Temperature Precipitation Wind Pressure Humidity
    00:00 +20°C° 0 mm 1 mps 688 mmHg 53%
    01:00 +20°C° 0 mm 1 mps 688 mmHg 56%
    02:00 +19°C° 0 mm 1 mps 688 mmHg 59%
    03:00 +19°C° 0 mm 1 mps 688 mmHg 62%
    04:00 +19°C° 0 mm 1 mps 688 mmHg 61%
    05:00 +20°C° 0 mm 1 mps 688 mmHg 60%
    06:00 +21°C° 0 mm 1 mps 688 mmHg 59%
    07:00 +23°C° 0 mm 1 mps 688 mmHg 53%
    08:00 +25°C° 0 mm 1 mps 688 mmHg 47%
    09:00 +26°C° 0 mm 1 mps 688 mmHg 41%
    10:00 +28°C° 0 mm 2 mps 688 mmHg 37%
    11:00 +29°C° 0 mm 2 mps 688 mmHg 34%
    12:00 +30°C° 0 mm 2 mps 688 mmHg 30%
    13:00 +31°C° 0 mm 2 mps 688 mmHg 28%
    14:00 +32°C° 0 mm 2 mps 687 mmHg 25%
    15:00 +34°C° 0 mm 2 mps 687 mmHg 23%
    16:00 +32°C° 0 mm 2 mps 687 mmHg 24%
    17:00 +32°C° 0 mm 2 mps 687 mmHg 26%
    18:00 +32°C° 0 mm 1 mps 687 mmHg 28%
    19:00 +29°C° 0 mm 2 mps 687 mmHg 32%
    20:00 +27°C° 0 mm 2 mps 687 mmHg 36%
    21:00 +24°C° 0 mm 2 mps 687 mmHg 40%
    22:00 +23°C° 0 mm 2 mps 687 mmHg 45%
    23:00 +21°C° 0 mm 2 mps 687 mmHg 49%

    9 June, Tuesday

    Time Temperature Precipitation Wind Pressure Humidity
    00:00 +21°C° 0 mm 1 mps 687 mmHg 54%
    01:00 +21°C° 0 mm 1 mps 686 mmHg 56%
    02:00 +19°C° 0 mm 2 mps 686 mmHg 59%
    03:00 +19°C° 0 mm 2 mps 686 mmHg 61%
    04:00 +20°C° 0 mm 2 mps 687 mmHg 60%
    05:00 +20°C° 0 mm 2 mps 687 mmHg 59%
    06:00 +21°C° 0 mm 2 mps 687 mmHg 58%
    07:00 +24°C° 0 mm 1 mps 687 mmHg 52%
    08:00 +26°C° 0 mm 1 mps 688 mmHg 46%
    09:00 +28°C° 0 mm 1 mps 688 mmHg 41%
    10:00 +29°C° 0 mm 1 mps 688 mmHg 36%
    11:00 +31°C° 0 mm 1 mps 688 mmHg 32%
    12:00 +32°C° 0 mm 1 mps 688 mmHg 28%
    13:00 +34°C° 0 mm 2 mps 688 mmHg 26%
    14:00 +34°C° 0 mm 2 mps 688 mmHg 24%
    15:00 +35°C° 0 mm 2 mps 688 mmHg 22%
    16:00 +34°C° 0.1 mm 3 mps 688 mmHg 27%
    17:00 +31°C° 0.1 mm 3 mps 688 mmHg 32%
    18:00 +30°C° 0.1 mm 4 mps 688 mmHg 37%
    19:00 +27°C° 0.7 mm 3 mps 688 mmHg 46%
    20:00 +24°C° 0.7 mm 3 mps 689 mmHg 56%
    21:00 +21°C° 0.7 mm 3 mps 689 mmHg 65%
    22:00 +20°C° 0.2 mm 2 mps 689 mmHg 67%
    23:00 +20°C° 0.2 mm 2 mps 688 mmHg 68%

    10 June, Wednesday

    Time Temperature Precipitation Wind Pressure Humidity
    00:00 +20°C° 0.2 mm 1 mps 688 mmHg 70%
    01:00 +20°C° 0.2 mm 1 mps 688 mmHg 71%
    02:00 +19°C° 0.2 mm 1 mps 688 mmHg 72%
    03:00 +19°C° 0.2 mm 1 mps 688 mmHg 73%
    04:00 +19°C° 0 mm 1 mps 688 mmHg 71%
    05:00 +20°C° 0 mm 1 mps 688 mmHg 68%
    06:00 +21°C° 0 mm 1 mps 688 mmHg 66%
    07:00 +23°C° 0 mm 1 mps 688 mmHg 60%
    08:00 +24°C° 0 mm 1 mps 689 mmHg 54%
    09:00 +26°C° 0 mm 1 mps 689 mmHg 48%
    10:00 +28°C° 0 mm 1 mps 689 mmHg 43%
    11:00 +29°C° 0 mm 1 mps 689 mmHg 38%
    12:00 +30°C° 0 mm 2 mps 689 mmHg 34%
    13:00 +31°C° 0 mm 1 mps 689 mmHg 31%
    14:00 +32°C° 0 mm 1 mps 689 mmHg 29%
    15:00 +33°C° 0 mm 1 mps 689 mmHg 27%
    16:00 +32°C° 0 mm 1 mps 688 mmHg 29%
    17:00 +32°C° 0 mm 2 mps 688 mmHg 30%
    18:00 +32°C° 0 mm 2 mps 688 mmHg 32%
    19:00 +29°C° 0.1 mm 2 mps 688 mmHg 39%
    20:00 +27°C° 0.1 mm 2 mps 689 mmHg 45%
    21:00 +24°C° 0.1 mm 2 mps 689 mmHg 52%
    22:00 +23°C° 0.4 mm 2 mps 688 mmHg 57%
    23:00 +21°C° 0.4 mm 2 mps 688 mmHg 62%
    Show more